Time,TemperatureF,DewpointF,PressureIn,WindDirection,WindDirectionDegrees,WindSpeedMPH,WindSpeedGustMPH,Humidity,HourlyPrecipIn,Conditions,Clouds,dailyrainin,SoftwareType,DateUTC
2013-02-13 00:00:00,30.2,26.2,30.08,NW,314,3.0,4.0,85,0.00,,,0.00,Wunderground v.1.15,2013-02-13 05:00:00,
2013-02-13 00:10:00,30.2,26.2,30.08,NW,315,3.0,4.0,85,0.00,,,0.00,Wunderground v.1.15,2013-02-13 05:10:00,
2013-02-13 00:15:00,30.2,26.2,30.08,NW,315,4.0,4.0,85,0.00,,,0.00,Wunderground v.1.15,2013-02-13 05:15:00,
2013-02-13 00:25:00,30.3,26.0,30.08,NW,305,5.0,6.0,84,0.00,,,0.00,Wunderground v.1.15,2013-02-13 05:25:00,
2013-02-13 00:30:00,30.3,26.0,30.08,NW,312,5.0,5.0,84,0.00,,,0.00,Wunderground v.1.15,2013-02-13 05:30:00,
2013-02-13 00:35:00,30.3,25.8,30.07,NW,318,5.0,5.0,83,0.00,,,0.00,Wunderground v.1.15,2013-02-13 05:35:00,
2013-02-13 00:40:00,30.3,25.8,30.07,WNW,302,4.0,10.0,83,0.00,,,0.00,Wunderground v.1.15,2013-02-13 05:40:00,
2013-02-13 00:45:00,30.3,25.8,30.07,NW,306,5.0,10.0,83,0.00,,,0.00,Wunderground v.1.15,2013-02-13 05:45:00,
2013-02-13 00:50:00,30.3,25.8,30.07,NW,304,5.0,7.0,83,0.00,,,0.00,Wunderground v.1.15,2013-02-13 05:50:00,
2013-02-13 01:00:00,30.2,25.4,30.07,WNW,302,6.0,6.0,82,0.00,,,0.00,Wunderground v.1.15,2013-02-13 06:00:00,
2013-02-13 01:10:00,30.1,25.3,30.07,WNW,292,7.0,8.0,82,0.00,,,0.00,Wunderground v.1.15,2013-02-13 06:10:00,
2013-02-13 01:15:00,30.1,25.3,30.07,NW,317,8.0,8.0,82,0.00,,,0.00,Wunderground v.1.15,2013-02-13 06:15:00,
2013-02-13 01:20:00,30.1,25.0,30.07,WNW,292,8.0,10.0,81,0.00,,,0.00,Wunderground v.1.15,2013-02-13 06:20:00,
2013-02-13 01:30:00,30.0,24.9,30.07,NW,313,7.0,7.0,81,0.00,,,0.00,Wunderground v.1.15,2013-02-13 06:30:00,
2013-02-13 01:35:00,30.1,25.0,30.07,NW,324,7.0,8.0,81,0.00,,,0.00,Wunderground v.1.15,2013-02-13 06:35:00,
2013-02-13 01:40:00,30.1,25.0,30.07,NNW,327,7.0,8.0,81,0.00,,,0.00,Wunderground v.1.15,2013-02-13 06:40:00,
2013-02-13 01:45:00,30.0,24.9,30.07,NW,309,6.0,8.0,81,0.00,,,0.00,Wunderground v.1.15,2013-02-13 06:45:00,
2013-02-13 01:50:00,29.9,25.1,30.07,NW,309,6.0,7.0,82,0.00,,,0.00,Wunderground v.1.15,2013-02-13 06:50:00,
2013-02-13 02:00:00,29.9,24.8,30.07,NW,311,6.0,6.0,81,0.00,,,0.00,Wunderground v.1.15,2013-02-13 07:00:00,
2013-02-13 02:10:00,29.9,24.8,30.07,WNW,291,6.0,9.0,81,0.00,,,0.00,Wunderground v.1.15,2013-02-13 07:10:00,
2013-02-13 02:15:00,30.0,24.6,30.07,WNW,297,7.0,9.0,80,0.00,,,0.00,Wunderground v.1.15,2013-02-13 07:15:00,
2013-02-13 02:25:00,29.9,24.5,30.07,WNW,300,6.0,7.0,80,0.00,,,0.00,Wunderground v.1.15,2013-02-13 07:25:00,
2013-02-13 02:30:00,29.9,24.5,30.07,NW,319,6.0,7.0,80,0.00,,,0.00,Wunderground v.1.15,2013-02-13 07:30:00,
2013-02-13 02:40:00,29.9,24.5,30.06,NW,306,4.0,5.0,80,0.00,,,0.00,Wunderground v.1.15,2013-02-13 07:40:00,
2013-02-13 02:45:00,29.8,24.4,30.06,NW,306,3.0,5.0,80,0.00,,,0.00,Wunderground v.1.15,2013-02-13 07:45:00,
2013-02-13 02:50:00,29.8,24.4,30.06,NW,306,3.0,3.0,80,0.00,,,0.00,Wunderground v.1.15,2013-02-13 07:50:00,
2013-02-13 02:55:00,29.8,24.4,30.06,WNW,288,2.0,3.0,80,0.00,,,0.00,Wunderground v.1.15,2013-02-13 07:55:00,
2013-02-13 03:00:00,29.8,24.4,30.06,WNW,288,2.0,3.0,80,0.00,,,0.00,Wunderground v.1.15,2013-02-13 08:00:00,
2013-02-13 03:10:00,29.8,24.4,30.06,WNW,287,2.0,2.0,80,0.00,,,0.00,Wunderground v.1.15,2013-02-13 08:10:00,
2013-02-13 03:20:00,29.8,24.4,30.05,WNW,287,1.0,1.0,80,0.00,,,0.00,Wunderground v.1.15,2013-02-13 08:20:00,
2013-02-13 03:30:00,29.7,24.3,30.05,WNW,287,1.0,1.0,80,0.00,,,0.00,Wunderground v.1.15,2013-02-13 08:30:00,
2013-02-13 03:35:00,29.7,24.3,30.05,WNW,287,2.0,2.0,80,0.00,,,0.00,Wunderground v.1.15,2013-02-13 08:35:00,
2013-02-13 03:44:00,29.7,24.3,30.05,WNW,285,2.0,2.0,80,0.00,,,0.00,Wunderground v.1.15,2013-02-13 08:44:00,
2013-02-13 03:49:00,29.7,24.3,30.05,WNW,285,1.0,2.0,80,0.00,,,0.00,Wunderground v.1.15,2013-02-13 08:49:00,
2013-02-13 03:55:00,29.7,24.3,30.05,WNW,285,1.0,2.0,80,0.00,,,0.00,Wunderground v.1.15,2013-02-13 08:55:00,
2013-02-13 04:05:00,29.9,24.5,30.04,WNW,289,1.0,8.0,80,0.00,,,0.00,Wunderground v.1.15,2013-02-13 09:05:00,
2013-02-13 04:10:00,29.9,24.5,30.04,West,273,1.0,8.0,80,0.00,,,0.00,Wunderground v.1.15,2013-02-13 09:10:00,
2013-02-13 04:20:00,29.9,24.2,30.04,West,271,2.0,8.0,79,0.00,,,0.00,Wunderground v.1.15,2013-02-13 09:20:00,
2013-02-13 04:25:00,29.9,24.2,30.04,West,262,2.0,8.0,79,0.00,,,0.00,Wunderground v.1.15,2013-02-13 09:25:00,
2013-02-13 04:30:00,29.9,24.2,30.03,West,261,3.0,8.0,79,0.00,,,0.00,Wunderground v.1.15,2013-02-13 09:30:00,
2013-02-13 04:40:00,29.9,24.2,30.03,West,264,2.0,2.0,79,0.00,,,0.00,Wunderground v.1.15,2013-02-13 09:40:00,
2013-02-13 04:45:00,30.0,24.0,30.03,WSW,257,3.0,3.0,78,0.00,,,0.00,Wunderground v.1.15,2013-02-13 09:45:00,
2013-02-13 04:50:00,30.0,24.0,30.03,WSW,257,3.0,8.0,78,0.00,,,0.00,Wunderground v.1.15,2013-02-13 09:50:00,
2013-02-13 04:55:00,30.0,24.3,30.03,WSW,257,2.0,8.0,79,0.00,,,0.00,Wunderground v.1.15,2013-02-13 09:55:00,
2013-02-13 05:00:00,29.9,24.2,30.03,WSW,257,2.0,2.0,79,0.00,,,0.00,Wunderground v.1.15,2013-02-13 10:00:00,
2013-02-13 05:10:00,29.8,24.1,30.03,WSW,257,1.0,3.0,79,0.00,,,0.00,Wunderground v.1.15,2013-02-13 10:10:00,
2013-02-13 05:15:00,29.8,24.1,30.02,WSW,257,1.0,3.0,79,0.00,,,0.00,Wunderground v.1.15,2013-02-13 10:15:00,
2013-02-13 05:25:00,29.7,24.0,30.02,WSW,257,1.0,1.0,79,0.00,,,0.00,Wunderground v.1.15,2013-02-13 10:25:00,
2013-02-13 05:30:00,29.7,24.0,30.02,WSW,257,0.0,0.0,79,0.00,,,0.00,Wunderground v.1.15,2013-02-13 10:30:00,
2013-02-13 05:35:00,29.7,24.0,30.02,WSW,257,0.0,1.0,79,0.00,,,0.00,Wunderground v.1.15,2013-02-13 10:35:00,
2013-02-13 05:40:00,29.8,24.1,30.02,WSW,257,1.0,1.0,79,0.00,,,0.00,Wunderground v.1.15,2013-02-13 10:40:00,
2013-02-13 05:50:00,29.9,24.2,30.02,WSW,257,1.0,1.0,79,0.00,,,0.00,Wunderground v.1.15,2013-02-13 10:50:00,
2013-02-13 05:55:00,29.9,24.2,30.02,WSW,257,1.0,1.0,79,0.00,,,0.00,Wunderground v.1.15,2013-02-13 10:55:00,
2013-02-13 06:00:00,30.0,24.6,30.02,WSW,257,1.0,1.0,80,0.00,,,0.00,Wunderground v.1.15,2013-02-13 11:00:00,
2013-02-13 06:10:00,30.0,24.3,30.02,WSW,257,1.0,1.0,79,0.00,,,0.00,Wunderground v.1.15,2013-02-13 11:10:00,
2013-02-13 06:15:00,30.0,24.6,30.02,WSW,257,1.0,1.0,80,0.00,,,0.00,Wunderground v.1.15,2013-02-13 11:15:00,
2013-02-13 06:25:00,29.9,24.5,30.02,West,259,1.0,1.0,80,0.00,,,0.00,Wunderground v.1.15,2013-02-13 11:25:00,
2013-02-13 06:30:00,30.0,24.3,30.02,West,259,1.0,2.0,79,0.00,,,0.00,Wunderground v.1.15,2013-02-13 11:30:00,
2013-02-13 06:35:00,30.1,24.4,30.02,West,259,1.0,3.0,79,0.00,,,0.00,Wunderground v.1.15,2013-02-13 11:35:00,
2013-02-13 06:40:00,30.2,24.5,30.02,WSW,258,1.0,1.0,79,0.00,,,0.00,Wunderground v.1.15,2013-02-13 11:40:00,
2013-02-13 06:45:00,30.2,24.5,30.02,West,260,2.0,2.0,79,0.00,,,0.00,Wunderground v.1.15,2013-02-13 11:45:00,
2013-02-13 06:55:00,30.1,24.1,30.02,West,275,2.0,3.0,78,0.00,,,0.00,Wunderground v.1.15,2013-02-13 11:55:00,
2013-02-13 07:00:00,30.1,24.1,30.02,WNW,288,3.0,3.0,78,0.00,,,0.00,Wunderground v.1.15,2013-02-13 12:00:00,
2013-02-13 07:10:00,30.2,24.2,30.02,WNW,296,4.0,4.0,78,0.00,,,0.00,Wunderground v.1.15,2013-02-13 12:10:00,
2013-02-13 07:19:00,30.2,24.2,30.02,WNW,296,4.0,4.0,78,0.00,,,0.00,Wunderground v.1.15,2013-02-13 12:19:00,
2013-02-13 07:25:00,30.2,24.5,30.02,WNW,292,3.0,4.0,79,0.00,,,0.00,Wunderground v.1.15,2013-02-13 12:25:00,
2013-02-13 07:30:00,30.2,24.5,30.02,WNW,292,3.0,3.0,79,0.00,,,0.00,Wunderground v.1.15,2013-02-13 12:30:00,
2013-02-13 07:39:00,30.1,24.4,30.02,WNW,292,1.0,4.0,79,0.00,,,0.00,Wunderground v.1.15,2013-02-13 12:39:00,
2013-02-13 07:45:00,30.2,24.5,30.02,WNW,296,1.0,4.0,79,0.00,,,0.00,Wunderground v.1.15,2013-02-13 12:45:00,
2013-02-13 07:50:00,30.3,24.3,30.02,NW,308,3.0,3.0,78,0.00,,,0.00,Wunderground v.1.15,2013-02-13 12:50:00,
2013-02-13 07:55:00,30.3,24.6,30.02,NNW,334,3.0,3.0,79,0.00,,,0.00,Wunderground v.1.15,2013-02-13 12:55:00,
2013-02-13 08:00:00,30.2,24.5,30.02,NNW,334,3.0,3.0,79,0.00,,,0.00,Wunderground v.1.15,2013-02-13 13:00:00,
2013-02-13 08:09:00,30.2,24.8,30.02,NNW,334,2.0,2.0,80,0.00,,,0.00,Wunderground v.1.15,2013-02-13 13:09:00,
2013-02-13 08:14:00,30.1,24.7,30.02,NNW,334,1.0,4.0,80,0.00,,,0.00,Wunderground v.1.15,2013-02-13 13:14:00,
2013-02-13 08:20:00,30.1,24.7,30.02,NNW,334,1.0,3.0,80,0.00,,,0.00,Wunderground v.1.15,2013-02-13 13:20:00,
2013-02-13 08:25:00,30.0,24.6,30.01,NNW,334,2.0,3.0,80,0.00,,,0.00,Wunderground v.1.15,2013-02-13 13:25:00,
2013-02-13 08:30:00,30.0,24.6,30.01,NNW,334,2.0,4.0,80,0.00,,,0.00,Wunderground v.1.15,2013-02-13 13:30:00,
2013-02-13 08:35:00,30.0,24.3,30.01,NNW,334,2.0,4.0,79,0.00,,,0.00,Wunderground v.1.15,2013-02-13 13:35:00,
2013-02-13 08:40:00,30.0,24.3,30.01,NNW,334,2.0,2.0,79,0.00,,,0.00,Wunderground v.1.15,2013-02-13 13:40:00,
2013-02-13 08:45:00,30.1,24.4,30.02,NNW,334,0.0,2.0,79,0.00,,,0.00,Wunderground v.1.15,2013-02-13 13:45:00,
2013-02-13 08:50:00,30.1,24.4,30.01,NNW,334,0.0,0.0,79,0.00,,,0.00,Wunderground v.1.15,2013-02-13 13:50:00,
2013-02-13 08:55:00,30.1,24.4,30.01,NNW,334,0.0,0.0,79,0.00,,,0.00,Wunderground v.1.15,2013-02-13 13:55:00,
2013-02-13 09:00:00,30.1,24.4,30.01,NNW,334,0.0,1.0,79,0.00,,,0.00,Wunderground v.1.15,2013-02-13 14:00:00,
2013-02-13 09:09:00,30.1,24.4,30.00,NNW,334,0.0,0.0,79,0.00,,,0.00,Wunderground v.1.15,2013-02-13 14:09:00,
2013-02-13 09:14:00,30.2,24.5,30.00,NNW,334,0.0,0.0,79,0.00,,,0.00,Wunderground v.1.15,2013-02-13 14:14:00,
2013-02-13 09:20:00,30.3,24.9,30.00,NNW,334,0.0,0.0,80,0.00,,,0.00,Wunderground v.1.15,2013-02-13 14:20:00,
2013-02-13 09:25:00,30.3,24.6,30.00,NNW,334,0.0,0.0,79,0.00,,,0.00,Wunderground v.1.15,2013-02-13 14:25:00,
2013-02-13 09:30:00,30.4,25.0,30.01,NNW,334,0.0,0.0,80,0.00,,,0.00,Wunderground v.1.15,2013-02-13 14:30:00,
2013-02-13 09:35:00,30.5,25.1,30.01,NNW,334,0.0,0.0,80,0.00,,,0.00,Wunderground v.1.15,2013-02-13 14:35:00,
2013-02-13 09:45:00,30.6,25.2,30.01,NNW,334,1.0,3.0,80,0.00,,,0.00,Wunderground v.1.15,2013-02-13 14:45:00,
2013-02-13 09:50:00,30.7,25.0,30.01,NNW,334,1.0,1.0,79,0.00,,,0.00,Wunderground v.1.15,2013-02-13 14:50:00,
2013-02-13 09:55:00,30.7,25.0,30.01,NNW,334,0.0,1.0,79,0.00,,,0.00,Wunderground v.1.15,2013-02-13 14:55:00,
2013-02-13 10:00:00,30.8,25.1,30.00,NNW,334,1.0,1.0,79,0.00,,,0.00,Wunderground v.1.15,2013-02-13 15:00:00,
2013-02-13 10:09:00,30.9,24.8,30.00,NNW,334,2.0,3.0,78,0.00,,,0.00,Wunderground v.1.15,2013-02-13 15:09:00,
2013-02-13 10:15:00,31.0,24.9,30.00,NNW,334,2.0,3.0,78,0.00,,,0.00,Wunderground v.1.15,2013-02-13 15:15:00,
2013-02-13 10:20:00,31.0,24.6,30.00,NNW,334,1.0,2.0,77,0.00,,,0.00,Wunderground v.1.15,2013-02-13 15:20:00,
2013-02-13 10:29:00,31.0,24.6,30.00,NW,325,3.0,3.0,77,0.00,,,0.00,Wunderground v.1.15,2013-02-13 15:29:00,
2013-02-13 10:34:00,31.2,24.8,30.00,NW,325,3.0,3.0,77,0.00,,,0.00,Wunderground v.1.15,2013-02-13 15:34:00,
2013-02-13 10:39:00,31.1,24.1,30.00,West,280,3.0,3.0,75,0.00,,,0.00,Wunderground v.1.15,2013-02-13 15:39:00,
2013-02-13 10:45:00,31.2,23.5,30.00,NNW,346,4.0,4.0,73,0.00,,,0.00,Wunderground v.1.15,2013-02-13 15:45:00,
2013-02-13 10:55:00,31.3,23.3,30.00,NNW,346,3.0,5.0,72,0.00,,,0.00,Wunderground v.1.15,2013-02-13 15:55:00,
2013-02-13 11:00:00,31.3,23.6,29.99,WNW,296,2.0,2.0,73,0.00,,,0.00,Wunderground v.1.15,2013-02-13 16:00:00,
2013-02-13 11:10:00,31.5,23.2,29.99,NW,304,2.0,2.0,71,0.00,,,0.00,Wunderground v.1.15,2013-02-13 16:10:00,
2013-02-13 11:15:00,31.5,23.5,29.99,NW,307,2.0,3.0,72,0.00,,,0.00,Wunderground v.1.15,2013-02-13 16:15:00,
2013-02-13 11:25:00,31.6,23.6,29.99,NW,304,3.0,5.0,72,0.00,,,0.00,Wunderground v.1.15,2013-02-13 16:25:00,
2013-02-13 11:34:00,31.6,22.9,29.99,North,360,5.0,5.0,70,0.00,,,0.00,Wunderground v.1.15,2013-02-13 16:34:00,
2013-02-13 11:39:00,31.7,23.4,29.98,WNW,296,3.0,4.0,71,0.00,,,0.00,Wunderground v.1.15,2013-02-13 16:39:00,
2013-02-13 11:44:00,31.7,23.0,29.98,NW,306,3.0,4.0,70,0.00,,,0.00,Wunderground v.1.15,2013-02-13 16:44:00,
2013-02-13 11:49:00,31.9,23.6,29.98,NW,314,3.0,3.0,71,0.00,,,0.00,Wunderground v.1.15,2013-02-13 16:49:00,
2013-02-13 11:55:00,31.9,23.2,29.97,NNW,331,2.0,3.0,70,0.00,,,0.00,Wunderground v.1.15,2013-02-13 16:55:00,
2013-02-13 12:05:00,31.9,22.9,29.96,North,360,1.0,2.0,69,0.00,,,0.00,Wunderground v.1.15,2013-02-13 17:05:00,
2013-02-13 12:10:00,31.9,22.9,29.96,North,360,2.0,2.0,69,0.00,,,0.00,Wunderground v.1.15,2013-02-13 17:10:00,
2013-02-13 12:15:00,32.0,23.0,29.96,North,360,1.0,2.0,69,0.00,,,0.00,Wunderground v.1.15,2013-02-13 17:15:00,
2013-02-13 12:25:00,32.4,23.4,29.96,WSW,245,1.0,2.0,69,0.00,,,0.00,Wunderground v.1.15,2013-02-13 17:25:00,
2013-02-13 12:34:00,32.2,22.8,29.95,NW,304,1.0,2.0,68,0.00,,,0.00,Wunderground v.1.15,2013-02-13 17:34:00,
2013-02-13 12:40:00,32.2,22.8,29.95,NW,304,0.0,0.0,68,0.00,,,0.00,Wunderground v.1.15,2013-02-13 17:40:00,
2013-02-13 12:45:00,32.3,22.9,29.95,NW,304,0.0,0.0,68,0.00,,,0.00,Wunderground v.1.15,2013-02-13 17:45:00,
2013-02-13 12:50:00,32.3,22.6,29.96,NW,304,0.0,0.0,67,0.00,,,0.00,Wunderground v.1.15,2013-02-13 17:50:00,
2013-02-13 12:55:00,32.8,23.7,29.95,NW,304,0.0,0.0,69,0.00,,,0.00,Wunderground v.1.15,2013-02-13 17:55:00,
2013-02-13 13:00:00,33.6,23.8,29.95,NW,304,0.0,0.0,67,0.00,,,0.00,Wunderground v.1.15,2013-02-13 18:00:00,
2013-02-13 13:10:00,34.2,24.4,29.95,NW,304,0.0,0.0,67,0.00,,,0.00,Wunderground v.1.15,2013-02-13 18:10:00,
2013-02-13 13:15:00,34.1,23.6,29.94,SSW,212,0.0,3.0,65,0.00,,,0.00,Wunderground v.1.15,2013-02-13 18:15:00,
2013-02-13 13:24:00,34.3,24.5,29.94,SSW,198,1.0,1.0,67,0.00,,,0.00,Wunderground v.1.15,2013-02-13 18:24:00,
2013-02-13 13:29:00,34.4,24.2,29.94,SSW,198,1.0,1.0,66,0.00,,,0.00,Wunderground v.1.15,2013-02-13 18:29:00,
2013-02-13 13:35:00,34.3,24.1,29.94,WNW,300,1.0,3.0,66,0.00,,,0.00,Wunderground v.1.15,2013-02-13 18:35:00,
2013-02-13 13:45:00,34.3,24.5,29.93,WNW,299,1.0,3.0,67,0.00,,,0.00,Wunderground v.1.15,2013-02-13 18:45:00,
2013-02-13 13:50:00,34.9,25.0,29.93,WSW,255,1.0,4.0,67,0.00,,,0.00,Wunderground v.1.15,2013-02-13 18:50:00,
2013-02-13 13:55:00,34.8,23.9,29.93,West,281,2.0,4.0,64,0.00,,,0.00,Wunderground v.1.15,2013-02-13 18:55:00,
2013-02-13 14:00:00,34.8,25.0,29.92,WSW,248,2.0,6.0,67,0.00,,,0.00,Wunderground v.1.15,2013-02-13 19:00:00,
2013-02-13 14:10:00,34.6,23.7,29.92,WNW,294,1.0,1.0,64,0.00,,,0.00,Wunderground v.1.15,2013-02-13 19:10:00,
2013-02-13 14:15:00,34.6,24.0,29.91,WNW,299,0.0,1.0,65,0.00,,,0.00,Wunderground v.1.15,2013-02-13 19:15:00,
2013-02-13 14:20:00,34.4,24.2,29.91,WNW,299,1.0,1.0,66,0.00,,,0.00,Wunderground v.1.15,2013-02-13 19:20:00,
2013-02-13 14:30:00,34.8,24.2,29.91,West,281,1.0,3.0,65,0.00,,,0.00,Wunderground v.1.15,2013-02-13 19:30:00,
2013-02-13 14:35:00,34.9,23.9,29.91,West,281,1.0,3.0,64,0.00,,,0.00,Wunderground v.1.15,2013-02-13 19:35:00,
2013-02-13 14:40:00,35.6,25.0,29.91,SSW,210,0.0,0.0,65,0.00,,,0.00,Wunderground v.1.15,2013-02-13 19:40:00,
2013-02-13 14:50:00,36.1,25.1,29.90,SSW,210,0.0,0.0,64,0.00,,,0.00,Wunderground v.1.15,2013-02-13 19:50:00,
2013-02-13 15:00:00,35.7,25.1,29.90,SSW,203,2.0,2.0,65,0.00,,,0.00,Wunderground v.1.15,2013-02-13 20:00:00,
2013-02-13 15:10:00,35.6,24.6,29.89,SSW,203,1.0,1.0,64,0.00,,,0.00,Wunderground v.1.15,2013-02-13 20:10:00,
2013-02-13 15:15:00,35.7,25.4,29.89,SSW,201,1.0,2.0,66,0.00,,,0.00,Wunderground v.1.15,2013-02-13 20:15:00,
2013-02-13 15:25:00,35.5,24.9,29.89,South,169,0.0,1.0,65,0.00,,,0.00,Wunderground v.1.15,2013-02-13 20:25:00,
2013-02-13 15:30:00,35.8,25.2,29.89,South,169,0.0,0.0,65,0.00,,,0.00,Wunderground v.1.15,2013-02-13 20:30:00,
2013-02-13 15:35:00,36.8,25.8,29.88,South,169,0.0,0.0,64,0.00,,,0.00,Wunderground v.1.15,2013-02-13 20:35:00,
2013-02-13 15:44:00,36.8,25.4,29.88,South,169,0.0,0.0,63,0.00,,,0.00,Wunderground v.1.15,2013-02-13 20:44:00,
2013-02-13 15:49:00,36.7,24.9,29.88,South,169,0.0,0.0,62,0.00,,,0.00,Wunderground v.1.15,2013-02-13 20:49:00,
2013-02-13 15:55:00,36.7,25.3,29.88,South,169,0.0,0.0,63,0.00,,,0.00,Wunderground v.1.15,2013-02-13 20:55:00,
2013-02-13 16:04:00,37.6,25.7,29.87,South,169,0.0,0.0,62,0.00,,,0.00,Wunderground v.1.15,2013-02-13 21:04:00,
2013-02-13 16:09:00,37.7,25.5,29.87,South,169,0.0,0.0,61,0.00,,,0.00,Wunderground v.1.15,2013-02-13 21:09:00,
2013-02-13 16:14:00,37.3,25.5,29.87,South,169,0.0,0.0,62,0.00,,,0.00,Wunderground v.1.15,2013-02-13 21:14:00,
2013-02-13 16:20:00,37.0,25.2,29.86,South,169,0.0,0.0,62,0.00,,,0.00,Wunderground v.1.15,2013-02-13 21:20:00,
2013-02-13 16:25:00,36.6,25.2,29.86,South,169,0.0,0.0,63,0.00,,,0.00,Wunderground v.1.15,2013-02-13 21:25:00,
2013-02-13 16:35:00,36.0,25.7,29.87,South,169,0.0,0.0,66,0.00,,,0.00,Wunderground v.1.15,2013-02-13 21:35:00,
2013-02-13 16:40:00,35.7,25.1,29.87,South,169,0.0,0.0,65,0.00,,,0.00,Wunderground v.1.15,2013-02-13 21:40:00,
2013-02-13 16:45:00,35.1,25.2,29.87,South,169,0.0,0.0,67,0.00,,,0.00,Wunderground v.1.15,2013-02-13 21:45:00,
2013-02-13 16:50:00,34.7,24.9,29.87,South,169,0.0,0.0,67,0.00,,,0.00,Wunderground v.1.15,2013-02-13 21:50:00,
2013-02-13 17:00:00,34.1,25.0,29.87,South,169,0.0,0.0,69,0.00,,,0.00,Wunderground v.1.15,2013-02-13 22:00:00,
2013-02-13 17:09:00,33.6,24.5,29.87,South,169,0.0,0.0,69,0.00,,,0.00,Wunderground v.1.15,2013-02-13 22:09:00,
2013-02-13 17:19:00,33.2,24.8,29.87,South,169,0.0,0.0,71,0.00,,,0.00,Wunderground v.1.15,2013-02-13 22:19:00,
2013-02-13 17:25:00,32.9,24.9,29.86,South,169,0.0,0.0,72,0.00,,,0.00,Wunderground v.1.15,2013-02-13 22:25:00,
2013-02-13 17:30:00,32.6,24.9,29.86,South,169,0.0,0.0,73,0.00,,,0.00,Wunderground v.1.15,2013-02-13 22:30:00,
2013-02-13 17:40:00,31.9,24.9,29.87,South,169,0.0,0.0,75,0.00,,,0.00,Wunderground v.1.15,2013-02-13 22:40:00,
2013-02-13 17:45:00,31.6,24.9,29.87,South,169,0.0,0.0,76,0.00,,,0.00,Wunderground v.1.15,2013-02-13 22:45:00,
2013-02-13 17:54:00,31.1,24.7,29.87,South,169,0.0,0.0,77,0.00,,,0.00,Wunderground v.1.15,2013-02-13 22:54:00,
2013-02-13 18:00:00,30.8,24.4,29.87,South,169,0.0,0.0,77,0.00,,,0.00,Wunderground v.1.15,2013-02-13 23:00:00,
2013-02-13 18:10:00,30.5,24.8,29.87,South,169,0.0,0.0,79,0.00,,,0.00,Wunderground v.1.15,2013-02-13 23:10:00,
2013-02-13 18:15:00,30.3,24.6,29.87,South,169,0.0,0.0,79,0.00,,,0.00,Wunderground v.1.15,2013-02-13 23:15:00,
2013-02-13 18:20:00,30.2,24.5,29.87,South,169,0.0,0.0,79,0.00,,,0.00,Wunderground v.1.15,2013-02-13 23:20:00,
2013-02-13 18:25:00,30.2,24.5,29.87,South,169,0.0,0.0,79,0.00,,,0.00,Wunderground v.1.15,2013-02-13 23:25:00,
2013-02-13 18:30:00,30.1,24.4,29.87,South,169,0.0,0.0,79,0.00,,,0.00,Wunderground v.1.15,2013-02-13 23:30:00,
2013-02-13 18:39:00,29.9,24.5,29.88,South,169,0.0,0.0,80,0.00,,,0.00,Wunderground v.1.15,2013-02-13 23:39:00,
2013-02-13 18:45:00,29.8,24.1,29.88,South,169,0.0,0.0,79,0.00,,,0.00,Wunderground v.1.15,2013-02-13 23:45:00,
2013-02-13 18:50:00,29.7,24.3,29.88,South,169,0.0,0.0,80,0.00,,,0.00,Wunderground v.1.15,2013-02-13 23:50:00,
2013-02-13 19:00:00,29.5,24.1,29.88,South,169,0.0,0.0,80,0.00,,,0.00,Wunderground v.1.15,2013-02-14 00:00:00,
2013-02-13 19:09:00,29.4,24.0,29.89,South,169,0.0,0.0,80,0.00,,,0.00,Wunderground v.1.15,2013-02-14 00:09:00,
2013-02-13 19:15:00,29.3,24.2,29.89,South,169,0.0,0.0,81,0.00,,,0.00,Wunderground v.1.15,2013-02-14 00:15:00,
2013-02-13 19:25:00,29.0,24.2,29.89,South,169,0.0,0.0,82,0.00,,,0.00,Wunderground v.1.15,2013-02-14 00:25:00,
2013-02-13 19:30:00,28.9,24.1,29.89,South,169,0.0,0.0,82,0.00,,,0.00,Wunderground v.1.15,2013-02-14 00:30:00,
2013-02-13 19:35:00,28.9,24.1,29.89,South,169,0.0,0.0,82,0.00,,,0.00,Wunderground v.1.15,2013-02-14 00:35:00,
2013-02-13 19:40:00,29.0,23.9,29.89,South,169,0.0,0.0,81,0.00,,,0.00,Wunderground v.1.15,2013-02-14 00:40:00,
2013-02-13 19:45:00,29.1,23.7,29.89,South,169,0.0,0.0,80,0.00,,,0.00,Wunderground v.1.15,2013-02-14 00:45:00,
2013-02-13 19:55:00,29.0,23.6,29.90,South,169,0.0,0.0,80,0.00,,,0.00,Wunderground v.1.15,2013-02-14 00:55:00,
2013-02-13 20:00:00,28.8,23.7,29.90,South,169,0.0,0.0,81,0.00,,,0.00,Wunderground v.1.15,2013-02-14 01:00:00,
2013-02-13 20:09:00,28.0,23.5,29.90,South,169,0.0,0.0,83,0.00,,,0.00,Wunderground v.1.15,2013-02-14 01:09:00,
2013-02-13 20:14:00,28.0,23.5,29.90,South,169,0.0,0.0,83,0.00,,,0.00,Wunderground v.1.15,2013-02-14 01:14:00,
2013-02-13 20:19:00,28.0,23.5,29.90,South,169,0.0,0.0,83,0.00,,,0.00,Wunderground v.1.15,2013-02-14 01:19:00,
2013-02-13 20:25:00,28.0,23.5,29.90,South,169,0.0,0.0,83,0.00,,,0.00,Wunderground v.1.15,2013-02-14 01:25:00,
2013-02-13 20:35:00,28.0,23.5,29.90,South,169,0.0,0.0,83,0.00,,,0.00,Wunderground v.1.15,2013-02-14 01:35:00,
2013-02-13 20:40:00,28.0,23.2,29.91,South,169,0.0,0.0,82,0.00,,,0.00,Wunderground v.1.15,2013-02-14 01:40:00,
2013-02-13 20:45:00,27.9,23.1,29.91,South,169,0.0,0.0,82,0.00,,,0.00,Wunderground v.1.15,2013-02-14 01:45:00,
2013-02-13 20:50:00,27.9,23.1,29.91,South,169,0.0,0.0,82,0.00,,,0.00,Wunderground v.1.15,2013-02-14 01:50:00,
2013-02-13 20:55:00,27.9,23.1,29.91,South,169,0.0,0.0,82,0.00,,,0.00,Wunderground v.1.15,2013-02-14 01:55:00,
2013-02-13 21:04:00,27.7,22.9,29.91,South,169,0.0,0.0,82,0.00,,,0.00,Wunderground v.1.15,2013-02-14 02:04:00,
2013-02-13 21:10:00,27.6,22.8,29.91,South,169,0.0,0.0,82,0.00,,,0.00,Wunderground v.1.15,2013-02-14 02:10:00,
2013-02-13 21:15:00,27.5,23.0,29.91,South,169,0.0,0.0,83,0.00,,,0.00,Wunderground v.1.15,2013-02-14 02:15:00,
2013-02-13 21:20:00,27.4,22.6,29.91,South,169,0.0,0.0,82,0.00,,,0.00,Wunderground v.1.15,2013-02-14 02:20:00,
2013-02-13 21:25:00,27.4,22.9,29.91,South,169,0.0,0.0,83,0.00,,,0.00,Wunderground v.1.15,2013-02-14 02:25:00,
2013-02-13 21:30:00,27.4,22.6,29.91,South,169,0.0,0.0,82,0.00,,,0.00,Wunderground v.1.15,2013-02-14 02:30:00,
2013-02-13 21:40:00,27.2,22.7,29.91,South,169,0.0,0.0,83,0.00,,,0.00,Wunderground v.1.15,2013-02-14 02:40:00,
2013-02-13 21:45:00,27.1,22.6,29.91,South,169,0.0,0.0,83,0.00,,,0.00,Wunderground v.1.15,2013-02-14 02:45:00,
2013-02-13 21:50:00,27.0,22.5,29.92,South,169,0.0,0.0,83,0.00,,,0.00,Wunderground v.1.15,2013-02-14 02:50:00,
2013-02-13 21:55:00,26.9,22.7,29.92,South,169,0.0,0.0,84,0.00,,,0.00,Wunderground v.1.15,2013-02-14 02:55:00,
2013-02-13 22:04:00,26.6,22.4,29.92,South,169,0.0,0.0,84,0.00,,,0.00,Wunderground v.1.15,2013-02-14 03:04:00,
2013-02-13 22:14:00,27.0,23.1,29.92,South,169,0.0,0.0,85,0.00,,,0.00,Wunderground v.1.15,2013-02-14 03:14:00,
2013-02-13 22:19:00,27.1,22.9,29.92,South,169,0.0,0.0,84,0.00,,,0.00,Wunderground v.1.15,2013-02-14 03:19:00,
2013-02-13 22:24:00,27.0,22.8,29.92,South,169,0.0,0.0,84,0.00,,,0.00,Wunderground v.1.15,2013-02-14 03:24:00,
2013-02-13 22:29:00,26.9,22.7,29.92,South,169,0.0,0.0,84,0.00,,,0.00,Wunderground v.1.15,2013-02-14 03:29:00,
2013-02-13 22:35:00,26.7,22.5,29.92,South,169,0.0,0.0,84,0.00,,,0.00,Wunderground v.1.15,2013-02-14 03:35:00,
2013-02-13 22:40:00,26.6,22.7,29.92,South,169,0.0,0.0,85,0.00,,,0.00,Wunderground v.1.15,2013-02-14 03:40:00,
2013-02-13 22:50:00,26.3,22.4,29.92,South,169,0.0,0.0,85,0.00,,,0.00,Wunderground v.1.15,2013-02-14 03:50:00,
2013-02-13 23:00:00,26.0,22.1,29.93,South,169,0.0,0.0,85,0.00,,,0.00,Wunderground v.1.15,2013-02-14 04:00:00,
2013-02-13 23:09:00,25.8,22.2,29.93,South,169,0.0,0.0,86,0.00,,,0.00,Wunderground v.1.15,2013-02-14 04:09:00,
2013-02-13 23:15:00,25.8,22.2,29.93,South,169,0.0,0.0,86,0.00,,,0.00,Wunderground v.1.15,2013-02-14 04:15:00,
2013-02-13 23:25:00,26.1,22.5,29.93,South,169,0.0,0.0,86,0.00,,,0.00,Wunderground v.1.15,2013-02-14 04:25:00,
2013-02-13 23:30:00,26.1,22.5,29.93,South,169,0.0,0.0,86,0.00,,,0.00,Wunderground v.1.15,2013-02-14 04:30:00,
2013-02-13 23:35:00,26.3,22.4,29.93,South,169,0.0,0.0,85,0.00,,,0.00,Wunderground v.1.15,2013-02-14 04:35:00,
2013-02-13 23:40:00,26.3,22.1,29.93,South,169,0.0,0.0,84,0.00,,,0.00,Wunderground v.1.15,2013-02-14 04:40:00,
2013-02-13 23:45:00,26.1,21.9,29.94,South,169,0.0,0.0,84,0.00,,,0.00,Wunderground v.1.15,2013-02-14 04:45:00,
2013-02-13 23:55:00,25.3,21.4,29.94,South,169,0.0,0.0,85,0.00,,,0.00,Wunderground v.1.15,2013-02-14 04:55:00,